Theta_e
314 314 314 314 314 313 313 312 312 312 312 311 311 311 311 310 311 317 318 318 315 318 318 316 317 316 313 310 305 299 299 294 292 292 291 291 290 291 288 287 287 287 287
315 314 314 314 314 314 315 314 313 312 312 311 311 311 310 310 310 314 316 316 317 318 317 316 315 314 312 307 304 302 294 294 292 292 291 293 292 290 288 287 287 287 287
314 314 313 313 314 315 315 314 313 313 312 311 310 310 309 309 309 312 315 315 316 317 316 315 314 312 310 306 302 298 294 292 290 295 297 295 291 288 287 287 287 287 287
313 313 313 313 314 314 313 313 313 312 311 311 310 309 308 308 309 312 313 315 314 314 315 314 311 311 306 303 300 294 292 292 293 297 294 292 290 287 287 288 288 286 286
313 313 312 312 312 312 311 311 311 310 309 309 308 307 307 307 308 312 313 314 314 314 314 311 310 306 302 300 295 292 292 293 296 296 292 292 289 287 288 288 287 286 286
313 313 312 312 311 310 310 310 309 309 309 308 307 307 306 306 307 310 311 312 312 313 312 310 306 301 300 298 291 291 291 294 297 295 293 291 289 289 288 287 286 286 286
312 312 311 311 312 311 310 309 308 308 307 307 306 305 305 305 306 308 309 311 310 310 309 307 303 299 299 294 289 290 296 296 294 295 294 293 291 288 289 287 286 285 285
311 311 311 311 311 311 311 311 310 308 306 305 304 304 303 303 305 306 307 308 307 305 304 302 298 298 296 289 288 294 295 295 295 294 294 294 288 287 289 287 287 284 284
309 309 309 309 310 309 309 308 307 305 303 303 302 302 302 301 303 304 304 305 302 300 299 296 293 294 289 289 290 293 294 294 294 293 293 292 286 288 288 288 285 284 284
309 309 309 308 307 308 307 306 305 304 302 300 300 299 299 299 301 302 302 301 299 296 293 290 290 289 289 289 291 292 294 293 293 292 292 291 290 288 288 287 284 283 283
306 307 307 307 306 305 304 303 301 300 299 298 298 297 297 298 299 299 297 296 295 293 291 290 288 288 289 289 291 293 293 292 292 291 291 289 288 287 287 285 283 283 283
304 303 303 303 303 302 301 300 299 297 296 296 294 295 296 297 297 297 294 294 292 291 291 289 289 287 287 290 291 292 291 290 291 290 290 289 288 288 287 284 283 283 283
306 302 301 300 298 298 299 298 297 296 293 292 293 294 294 294 293 292 289 290 289 287 287 287 288 287 288 290 291 290 290 290 290 290 289 288 288 286 284 283 283 283 282
301 300 298 296 296 295 294 294 295 293 292 293 293 293 292 291 290 289 287 287 286 286 286 287 287 286 287 287 288 289 289 289 289 289 288 287 286 285 284 283 282 281 280
298 296 295 294 294 293 293 292 291 291 291 292 292 292 291 291 290 288 287 286 286 286 286 287 286 286 286 287 288 288 288 288 288 288 287 286 285 284 283 281 280 280 280
293 293 294 291 291 292 291 291 290 290 291 291 292 291 291 290 290 289 287 286 286 287 287 287 287 287 287 287 287 288 288 287 287 287 286 285 284 283 282 281 280 280 279
291 291 291 292 291 292 291 291 292 290 289 290 291 291 291 291 291 289 287 286 287 287 287 287 287 287 287 287 286 286 287 287 286 285 285 283 282 281 281 280 280 279 277
292 291 292 291 291 291 291 290 290 291 291 291 291 291 291 291 290 289 288 287 287 287 287 288 288 287 287 286 286 286 286 286 285 284 283 283 282 281 280 279 279 277 274
290 291 291 291 291 290 289 289 289 289 289 290 289 289 289 290 290 289 289 288 288 288 287 287 286 286 286 286 285 285 284 284 283 282 282 281 280 279 279 278 276 274 273
290 289 289 290 291 292 291 290 289 289 290 290 289 288 289 289 289 288 288 287 286 286 286 285 285 285 284 284 284 283 283 282 282 281 280 280 279 278 277 274 273 273 272
289 290 289 290 290 290 289 288 288 288 287 286 286 286 286 286 286 286 286 286 285 285 285 284 284 284 283 282 282 281 281 280 280 279 278 277 276 276 273 272 272 272 271
289 289 289 288 288 287 287 287 287 286 286 285 285 285 285 285 284 284 284 283 283 283 282 282 282 281 281 280 280 279 279 278 277 276 275 274 273 272 272 271 272 271 270
288 288 287 286 285 285 285 285 285 284 284 284 283 283 283 283 283 282 282 281 281 281 281 280 280 279 279 278 278 277 277 276 275 274 273 272 271 271 271 271 270 269 269
286 285 285 284 284 283 283 283 283 283 282 282 282 281 281 281 281 280 280 280 279 279 279 278 278 277 277 276 275 275 274 273 273 272 271 271 271 271 271 269 268 268 267
282 282 282 282 282 282 282 281 281 280 280 279 279 279 278 278 277 277 276 276 276 276 275 275 274 274 273 273 272 272 271 271 271 271 271 271 270 269 268 267 267 267 266
280 280 281 280 279 279 278 277 277 277 276 276 276 276 275 275 275 275 274 274 274 273 273 273 272 272 272 271 271 271 270 270 270 269 269 268 268 267 267 266 266 266 266
Wind_Speed
13 14 15 18 21 24 26 28 29 30 33 36 34 33 34 36 38 46 51 47 48 49 50 45 41 48 45 43 42 39 35 32 30 28 25 23 19 18 19 18 16 13 14
10 10 12 18 23 25 26 27 29 30 32 34 34 32 32 33 35 41 47 46 46 48 41 45 47 46 45 43 41 39 33 32 31 26 28 22 22 19 19 19 13 15 14
20 20 23 23 25 29 30 29 30 32 35 34 34 33 31 32 34 38 43 45 49 44 43 47 47 46 46 43 41 34 31 32 28 23 19 22 21 21 21 15 15 16 15
28 28 29 29 31 33 34 34 34 35 37 37 35 33 32 32 33 35 39 43 44 42 44 48 45 44 44 41 37 31 33 32 26 19 18 18 20 21 17 16 19 17 17
30 32 33 31 33 35 36 36 37 37 38 37 35 33 34 34 36 36 37 39 41 40 48 44 43 42 39 34 34 35 33 31 25 21 22 19 22 21 19 18 19 18 18
30 34 33 33 34 35 36 37 38 37 36 36 35 33 34 35 36 35 36 39 41 41 42 44 43 40 35 32 31 35 36 32 24 22 21 19 20 20 19 19 19 18 21
32 32 32 31 32 31 31 33 35 35 34 35 34 33 32 33 33 33 36 38 40 42 44 45 42 38 33 30 33 36 26 24 19 17 16 17 19 23 21 18 19 20 22
28 28 29 30 31 30 31 31 31 32 33 33 32 31 31 30 30 33 36 36 39 41 42 41 39 35 33 35 41 34 29 25 17 15 18 22 21 27 21 21 20 22 23
24 26 26 27 29 30 31 30 30 30 30 30 30 30 30 28 28 31 33 35 37 37 37 36 34 30 33 39 39 36 30 22 17 14 20 23 28 26 23 22 21 22 23
27 26 26 26 27 28 28 29 29 28 27 27 28 28 27 26 27 31 34 34 34 33 33 31 30 31 37 40 41 35 31 22 13 15 21 25 22 22 23 21 20 22 20
25 27 27 27 27 26 25 24 24 24 25 26 26 25 24 23 25 28 29 30 30 32 32 31 31 35 37 40 36 35 26 21 19 17 22 21 22 25 24 21 21 21 19
30 26 26 24 24 23 22 19 19 20 20 19 19 19 19 20 23 23 21 23 25 26 27 31 33 38 39 38 34 25 24 20 21 24 24 23 24 25 23 21 19 19 20
32 28 25 24 21 19 17 17 14 14 13 13 14 14 16 16 16 13 16 18 13 19 22 28 32 33 38 34 27 29 25 26 25 24 24 24 23 21 19 20 20 21 21
25 25 24 21 18 15 12 12 11 9 8 7 9 10 11 11 11 11 20 20 13 14 14 20 28 31 35 35 30 23 22 26 27 27 26 23 21 21 21 21 22 22 21
23 21 15 14 12 9 7 6 5 4 5 5 4 3 4 6 7 10 15 17 15 13 16 24 26 28 30 30 30 28 26 28 29 29 27 26 24 23 24 24 24 24 24
18 16 12 12 8 5 4 6 7 5 7 10 11 11 8 8 7 10 15 14 12 13 18 22 24 26 28 29 28 30 32 32 30 26 27 26 26 26 25 26 26 26 25
15 14 11 8 5 7 8 9 10 11 10 11 11 10 10 9 9 11 13 13 12 16 16 18 20 23 25 24 26 30 31 27 24 25 24 24 25 26 27 28 27 27 26
15 12 8 6 5 5 5 5 6 7 6 6 7 7 8 10 9 10 12 13 16 17 18 18 18 19 20 22 24 25 24 24 24 24 25 26 26 26 26 26 26 25 25
13 10 8 7 7 5 4 4 4 4 4 3 5 7 8 8 9 10 10 13 16 18 19 18 18 18 18 20 22 23 21 20 21 22 23 23 23 23 24 24 24 25 24
12 10 8 8 6 3 4 4 3 3 3 4 6 7 7 8 9 9 11 12 11 12 14 15 16 17 19 18 17 17 18 18 19 20 20 21 21 22 23 22 23 23 23
8 8 7 5 5 5 6 6 6 5 5 6 6 6 6 6 7 8 9 9 10 12 13 13 14 14 14 14 14 15 16 17 17 19 19 20 22 21 21 22 22 23 22
9 7 5 4 5 6 6 5 5 4 4 4 3 2 3 3 3 4 5 7 8 9 10 11 12 13 14 15 16 17 17 17 19 19 20 20 21 21 22 22 22 22 22
4 4 4 4 4 4 4 4 3 3 2 2 2 2 2 3 3 5 7 8 10 11 13 14 14 15 16 17 18 19 20 20 20 21 21 21 21 21 22 23 22 22 22
5 5 5 5 5 5 4 3 2 2 1 1 2 3 4 6 7 8 10 12 13 15 15 16 17 18 19 19 20 21 21 21 22 22 22 22 23 23 23 23 21 20 20
9 9 9 8 5 4 3 2 1 1 2 3 5 7 8 9 10 11 12 13 15 16 17 18 19 19 20 20 21 22 22 22 22 22 23 24 24 23 22 22 20 20 20
9 7 6 6 4 3 2 1 3 4 6 8 9 10 11 12 14 15 17 18 18 19 20 21 21 21 21 21 21 22 22 23 23 23 23 23 23 23 22 21 21 21 21
Wind_Direction
256 258 263 267 267 265 265 266 267 270 271 269 270 268 263 258 250 241 242 241 251 246 250 246 249 247 244 242 241 232 231 233 236 224 216 208 207 214 221 229 236 251 263
259 273 299 295 284 279 277 276 271 269 272 270 270 269 265 260 253 243 243 245 251 246 247 248 244 251 244 242 240 236 222 228 227 220 204 203 212 217 223 229 240 255 264
287 286 294 293 292 286 281 279 276 272 270 269 267 266 264 260 256 243 244 248 249 247 248 247 249 243 240 241 237 218 223 221 216 208 207 209 212 216 222 229 248 260 271
292 290 289 284 286 279 275 272 273 272 270 269 267 267 265 258 254 247 245 250 247 248 249 252 245 246 245 242 228 212 210 218 201 208 212 212 216 219 222 243 254 261 272
285 288 290 288 284 279 273 272 274 275 272 269 267 265 262 256 250 246 247 249 249 250 250 246 247 246 246 239 219 210 214 197 205 210 212 214 215 218 234 244 255 268 279
286 287 287 287 286 281 278 278 275 272 271 270 268 265 262 257 250 249 249 252 249 250 252 245 244 242 240 224 215 218 210 220 207 213 219 223 223 237 234 244 260 273 286
290 290 288 286 282 281 278 274 274 275 274 270 268 266 262 257 251 248 252 252 249 247 249 243 241 237 228 207 206 203 201 205 217 231 234 249 243 236 242 247 262 274 283
293 291 288 285 282 280 278 276 274 273 271 271 269 268 266 260 251 250 252 255 256 250 247 245 240 234 212 199 203 199 205 208 225 242 262 269 237 244 244 248 262 273 283
298 296 293 288 285 282 279 278 274 272 271 269 269 267 265 262 253 250 251 255 254 248 245 240 233 227 203 204 208 206 215 217 233 257 275 255 240 253 262 256 262 274 283
308 303 300 299 294 287 281 276 272 266 265 263 264 264 264 260 252 251 253 251 247 242 239 231 224 211 208 208 207 216 213 218 240 268 277 265 257 255 256 260 267 273 279
306 305 303 298 293 287 283 280 275 266 259 257 258 257 255 252 253 253 255 251 245 238 235 223 210 208 210 212 212 212 223 236 250 276 278 256 248 249 250 256 263 269 271
306 303 301 297 289 285 280 278 272 266 263 260 261 258 254 250 250 247 243 252 249 246 240 224 213 200 209 207 213 210 230 243 258 272 272 253 250 249 252 257 260 261 273
300 304 306 300 290 282 277 269 261 263 261 267 264 261 261 256 247 238 218 239 244 238 236 227 214 198 202 206 215 227 241 256 265 269 269 256 256 256 254 253 257 265 271
300 299 298 290 286 278 270 266 251 236 228 230 251 261 262 254 240 205 202 218 214 219 220 216 198 197 210 217 227 231 249 259 270 279 271 261 257 255 258 263 263 267 272
295 290 285 278 267 260 252 234 240 201 193 173 187 194 233 249 232 205 202 209 208 206 191 186 192 202 210 222 228 240 245 256 269 275 262 259 258 259 263 261 264 268 271
286 282 274 251 228 195 182 165 134 124 131 123 122 119 123 131 146 175 188 197 198 194 191 193 199 209 218 226 232 238 257 266 271 263 256 256 256 258 260 262 265 268 271
276 264 244 220 189 147 145 142 138 132 127 123 123 119 117 120 132 147 167 181 189 192 200 210 220 227 233 237 241 254 269 272 270 262 255 256 254 256 257 262 265 265 270
259 246 224 208 187 150 136 140 135 137 137 124 117 120 124 128 138 156 174 182 196 209 222 221 230 243 252 256 261 263 266 266 262 257 256 261 257 256 257 258 260 268 269
237 227 197 154 139 127 127 141 150 143 140 140 141 135 141 149 153 157 173 201 210 216 230 241 248 255 258 260 263 265 265 265 262 260 261 259 258 257 258 259 263 265 268
201 190 166 145 120 159 180 164 155 144 138 142 146 144 166 173 183 193 202 216 234 243 247 250 254 256 261 269 268 266 265 264 265 265 263 263 261 260 264 266 265 268 273
166 154 141 136 162 174 172 175 180 179 158 158 165 163 150 146 163 177 194 215 226 234 242 251 256 262 266 266 266 265 265 265 265 265 265 264 264 268 267 264 266 269 272
141 136 143 175 184 178 181 184 191 194 196 200 200 211 196 198 211 231 236 240 244 247 251 255 259 263 265 266 264 263 263 263 263 264 264 265 265 264 264 266 269 270 269
156 149 150 167 166 168 171 175 185 197 215 233 242 267 272 275 279 274 273 275 276 278 278 278 278 277 276 275 273 270 268 267 264 263 263 264 264 265 267 269 268 265 265
122 126 142 145 144 146 147 151 158 164 181 319 311 304 310 306 301 295 291 288 287 287 287 287 285 284 283 281 278 275 272 268 267 267 265 265 266 265 264 263 263 263 263
134 138 137 134 130 128 130 125 104 358 327 319 311 314 309 301 297 293 293 293 290 289 288 286 285 284 281 278 276 274 273 272 270 268 267 266 264 263 263 262 261 261 261
121 119 118 119 124 113 82 8 331 318 314 308 304 301 298 297 296 294 292 289 290 289 287 287 286 285 284 282 279 276 274 273 272 270 269 266 265 264 263 263 261 260 259